[[{"header":{"parameterUnit":"m.s-1","parameterCategory":1,"la1":30.2991,"la2":30.254,"lo1":-89.0895,"lo2":-89.0444,"dy":0.0017,"dx":0.0017,"nx":28,"ny":28,"refTime":"2023-08-19T21:00:00:Z","depth":0,"parameterNumber":2,"parameterNumberName":"U-component_of_WINDS"},"data":[0,0,0,0,0,0,0,0,0,0,0,0,0,0,0,0,0,0,0,0,0,0,0,0,0,0,0,0,0,0,0,0,0,0,0,0,0,0,0,0,0,0,0,0,0,0,0,0,0,0,0,0,0,0,0,0,0,0,-0.9063,-0.9064,0,-0.9144,-0.9145,-0.9146,-0.9208,-0.9209,-0.9209,-0.921,-0.929,-0.9291,-0.9293,0,0,0,0,0,0,0,0,0,0,0,0,0,-0.896,-0.8962,-0.9063,-0.9064,-0.9065,-0.9144,-0.9145,-0.9146,-0.9208,-0.9209,-0.9209,-0.921,-0.9289,-0.9291,-0.9293,0,0,0,0,0,0,0,0,0,0,0,0,0,-0.9019,-0.8962,-0.9063,-0.9105,-0.911,-0.9144,-0.9145,-0.9146,-0.9208,-0.9209,-0.9209,-0.921,-0.9289,-0.9291,-0.9293,-0.9291,0,0,-0.9301,-0.9302,0,0,0,0,0,0,0,0,-0.9016,-0.9023,-0.9098,-0.9102,-0.9108,-0.9167,-0.9138,-0.9195,-0.9207,-0.917,-0.921,-0.9211,-0.9248,-0.9254,-0.9267,-0.9294,-0.9298,-0.9301,-0.9302,-0.9303,-0.9304,0,0,0,0,0,0,0,-0.9012,-0.902,-0.9095,-0.9099,-0.9105,-0.912,-0.9129,-0.9149,-0.9203,-0.9174,-0.9178,-0.9187,-0.9251,-0.9265,-0.9269,-0.9299,-0.9301,-0.9303,-0.9304,-0.9305,-0.933,-0.9329,0,0,0,0,0,0,-0.9001,-0.9016,-0.9092,-0.9097,-0.9063,-0.9121,-0.9132,-0.9147,-0.9203,-0.9213,-0.9187,-0.919,-0.926,-0.9267,-0.9272,-0.9274,-0.9303,-0.9306,-0.9307,-0.9331,-0.933,-0.9329,0,0,0,0,0,0,-0.8999,-0.9008,-0.9089,-0.9058,-0.907,-0.9122,-0.9139,-0.9148,-0.9162,-0.9213,-0.9223,-0.9191,-0.9261,-0.9269,-0.9286,-0.9278,-0.9307,-0.9309,-0.9332,-0.933,-0.9329,-0.9276,0,0,0,0,0,0,-0.8996,-0.9006,-0.9006,-0.9058,-0.9071,-0.9102,-0.9138,-0.9149,-0.9166,-0.9171,-0.9219,-0.9228,-0.9262,-0.9282,-0.9289,-0.9281,-0.9311,-0.9333,-0.9331,-0.933,-0.9279,-0.9273,-0.9268,0,0,0,0,0,-0.8992,-0.8987,-0.9005,-0.9014,-0.9072,-0.9101,-0.9109,-0.9149,-0.9165,-0.9165,-0.9198,-0.9227,-0.9278,-0.9284,-0.9291,-0.9284,-0.9333,-0.9331,-0.933,-0.9281,-0.9274,-0.9268,0,0,0,0,0,0,-0.8931,-0.8994,-0.9016,-0.9027,-0.9059,-0.9111,-0.9113,-0.914,-0.9166,-0.917,-0.9218,-0.9228,-0.9241,-0.9264,-0.927,-0.9286,-0.9309,-0.9309,-0.927,-0.9263,-0.9258,-0.9252,-0.9313,0,0,0,0,0,-0.8919,-0.8938,-0.8992,-0.8997,-0.9012,-0.9059,-0.9074,-0.9102,-0.9136,-0.9149,-0.9184,-0.9215,-0.9238,-0.9252,-0.9276,-0.9283,-0.9295,-0.9282,-0.9277,-0.9272,-0.9271,-0.9278,-0.9273,-0.9323,-0.9323,-0.9323,0,0,-0.8894,-0.8931,-0.894,-0.8986,-0.9014,-0.9032,-0.907,-0.9088,-0.9102,-0.9152,-0.917,-0.9197,-0.9235,-0.9247,-0.9254,-0.9267,-0.926,-0.927,-0.9266,-0.9268,-0.9275,-0.9271,-0.9266,-0.9322,-0.9322,-0.9322,0,0,-0.8859,-0.8889,-0.8897,-0.8924,-0.8966,-0.8998,-0.9,-0.9049,-0.9069,-0.9089,-0.9127,-0.9145,-0.9183,-0.9209,-0.9228,-0.9204,-0.9231,-0.9211,-0.9183,-0.9189,-0.9185,-0.9182,-0.9174,-0.917,-0.921,-0.9209,-0.9209,0,-0.8822,-0.8853,-0.8897,-0.8913,-0.8933,-0.898,-0.8989,-0.9013,-0.906,-0.9072,-0.9086,-0.9137,-0.9166,-0.9186,-0.918,-0.9193,-0.9197,-0.9205,-0.9182,-0.9179,-0.9177,-0.917,-0.9167,-0.9207,-0.9207,-0.9207,-0.9208,0,-0.8806,-0.8827,-0.8828,-0.8874,-0.8894,-0.8906,-0.8952,-0.8966,-0.8994,-0.9024,-0.9044,-0.9081,-0.9114,-0.9121,-0.9147,-0.9144,-0.9151,-0.9173,-0.9198,-0.9169,-0.9163,-0.9161,-0.9203,-0.9204,-0.9204,-0.9205,0,0,-0.8733,-0.8805,-0.8805,-0.8827,-0.8878,-0.8894,-0.8909,-0.8942,-0.8954,-0.8985,-0.8999,-0.9032,-0.9053,-0.9074,-0.9103,-0.9108,-0.9088,-0.913,-0.9131,-0.9121,-0.9089,-0.9072,-0.9068,-0.9107,-0.9107,-0.9107,-0.9086,0,-0.8706,-0.8736,-0.8777,-0.8793,-0.8813,-0.8859,-0.8872,-0.8904,-0.8934,-0.8954,-0.8987,-0.9009,-0.9035,-0.9048,-0.9055,-0.9089,-0.9082,-0.9091,-0.912,-0.912,-0.9109,-0.9065,-0.9047,-0.9026,-0.9084,-0.9084,-0.9083,0,-0.8678,-0.8708,-0.8726,-0.8777,-0.8787,-0.8798,-0.8833,-0.8852,-0.889,-0.8911,-0.8935,-0.8968,-0.8986,-0.9008,-0.9034,-0.9039,-0.9053,-0.9072,-0.9072,-0.9076,-0.91,-0.9068,-0.902,-0.9017,-0.908,-0.908,-0.9081,0,-0.8624,-0.8669,-0.8686,-0.8703,-0.8763,-0.8769,-0.8794,-0.8833,-0.8851,-0.8882,-0.8894,-0.8925,-0.8942,-0.8966,-0.9007,-0.9019,-0.9028,-0.9054,-0.9046,-0.9045,-0.9045,-0.9045,-0.8999,-0.9054,-0.9054,-0.9054,-0.9055,0,-0.8589,-0.8598,-0.8663,-0.8673,-0.8685,-0.8733,-0.8744,-0.8773,-0.8807,-0.8824,-0.8866,-0.8881,-0.8933,-0.8954,-0.8986,-0.9003,-0.901,-0.9027,-0.9036,-0.9024,-0.9022,-0.9034,-0.9036,-0.9054,-0.9054,-0.9054,-0.9054,0,-0.853,-0.8574,-0.8596,-0.865,-0.8665,-0.8671,-0.8718,-0.873,-0.8762,-0.8783,-0.8791,-0.8841,-0.8869,-0.8912,-0.8951,-0.8972,-0.8984,-0.8997,-0.8971,-0.8976,-0.8966,-0.8967,-0.8926,-0.8924,-0.898,-0.898,-0.8979,0,-0.8505,-0.8513,-0.857,-0.8585,-0.8609,-0.8632,-0.8651,-0.8699,-0.8717,-0.8762,-0.8768,-0.8799,-0.8826,-0.8867,-0.8907,-0.8938,-0.8953,-0.8937,-0.8957,-0.8945,-0.8953,-0.8952,-0.8953,-0.8931,-0.893,-0.893,-0.8929,0,-0.8456,-0.8478,-0.8504,-0.8539,-0.8561,-0.859,-0.8621,-0.863,-0.8685,-0.8703,-0.8732,-0.8753,-0.8795,-0.8825,-0.8861,-0.8887,-0.8917,-0.8923,-0.8923,-0.891,-0.8895,-0.8904,-0.8958,-0.8923,-0.8924,-0.8924,-0.8924,-0.8925,-0.8414,-0.8424,-0.8466,-0.8494,-0.8523,-0.8552,-0.8566,-0.8601,-0.8626,-0.8664,-0.8691,-0.8718,-0.8757,-0.881,-0.8834,-0.8856,-0.8869,-0.8869,-0.8869,-0.8868,-0.8864,-0.8891,-0.8862,-0.8863,-0.8863,-0.8863,-0.8863,0,-0.8367,-0.8397,-0.8423,-0.8466,-0.8488,-0.8517,-0.8553,-0.857,-0.8594,-0.8628,-0.8654,-0.8688,-0.8718,-0.8761,-0.8794,-0.8803,-0.8818,-0.881,-0.881,-0.8816,-0.885,-0.8847,-0.8798,-0.8798,-0.8798,-0.8798,-0.8798,-0.8798,-0.8346,-0.8365,-0.8392,-0.8426,-0.8456,-0.8484,-0.8503,-0.8529,-0.8557,-0.8593,-0.8619,-0.8647,-0.8685,-0.8722,-0.875,-0.8762,-0.8772,-0.876,-0.8776,-0.8807,-0.8813,-0.8819,-0.8816,-0.8762,-0.8762,-0.8741,-0.8741,-0.874]},{"header":{"parameterUnit":"m.s-1","parameterCategory":1,"la1":30.2991,"la2":30.254,"lo1":-89.0895,"lo2":-89.0444,"dy":0.0017,"dx":0.0017,"nx":28,"ny":28,"refTime":"2023-08-19T21:00:00:Z","depth":0,"parameterNumber":3,"parameterNumberName":"V-component_of_WINDS"},"data":[0,0,0,0,0,0,0,0,0,0,0,0,0,0,0,0,0,0,0,0,0,0,0,0,0,0,0,0,0,0,0,0,0,0,0,0,0,0,0,0,0,0,0,0,0,0,0,0,0,0,0,0,0,0,0,0,0,0,0.4403,0.4402,0,0.4338,0.4337,0.4336,0.4302,0.4302,0.4302,0.4302,0.4229,0.4227,0.4225,0,0,0,0,0,0,0,0,0,0,0,0,0,0.449,0.4489,0.4403,0.4402,0.4401,0.4338,0.4337,0.4336,0.4302,0.4302,0.4302,0.4302,0.4229,0.4227,0.4225,0,0,0,0,0,0,0,0,0,0,0,0,0,0.4441,0.4488,0.4403,0.4376,0.4373,0.4338,0.4337,0.4336,0.4302,0.4302,0.4302,0.4302,0.423,0.4227,0.4224,0.4208,0,0,0.4216,0.4214,0,0,0,0,0,0,0,0,0.4444,0.4438,0.4381,0.4378,0.4375,0.4328,0.4341,0.4293,0.4302,0.4329,0.4302,0.4302,0.4261,0.4256,0.4244,0.4205,0.4201,0.4215,0.4214,0.4212,0.4212,0,0,0,0,0,0,0,0.4448,0.4441,0.4377,0.438,0.4376,0.4366,0.4359,0.4332,0.4296,0.4326,0.4324,0.4317,0.4259,0.4246,0.4242,0.42,0.4215,0.4213,0.4211,0.421,0.4143,0.4143,0,0,0,0,0,0,0.4456,0.4444,0.4379,0.4375,0.441,0.4364,0.4356,0.4343,0.4296,0.4289,0.4317,0.4316,0.4251,0.4245,0.4239,0.4216,0.4212,0.421,0.4208,0.4143,0.4143,0.4143,0,0,0,0,0,0,0.4458,0.4451,0.4381,0.4409,0.4399,0.4363,0.4348,0.4342,0.4329,0.4289,0.4282,0.4311,0.4251,0.4243,0.4216,0.4213,0.4208,0.4206,0.4143,0.4143,0.4143,0.4171,0,0,0,0,0,0,0.4461,0.4452,0.4447,0.4409,0.4398,0.4362,0.4348,0.434,0.4325,0.4322,0.4281,0.4275,0.425,0.4221,0.4213,0.4209,0.4204,0.4143,0.4143,0.4143,0.417,0.4172,0.4173,0,0,0,0,0,0.4464,0.4456,0.4447,0.4439,0.4391,0.4362,0.4355,0.433,0.4325,0.4318,0.4293,0.4276,0.4215,0.4218,0.421,0.4204,0.4143,0.4143,0.4143,0.4169,0.4171,0.4173,0,0,0,0,0,0,0.4492,0.445,0.444,0.4419,0.4395,0.4356,0.4348,0.4333,0.4307,0.4306,0.4273,0.4264,0.424,0.4219,0.4224,0.4185,0.4177,0.4175,0.42,0.4202,0.4203,0.4208,0.4201,0,0,0,0,0,0.4496,0.4478,0.4442,0.4427,0.4416,0.4384,0.437,0.4353,0.4325,0.4313,0.4286,0.4258,0.4232,0.4216,0.419,0.4167,0.4156,0.4159,0.416,0.4162,0.416,0.4146,0.4146,0.4143,0.4143,0.4143,0,0,0.4504,0.4479,0.4469,0.4432,0.4411,0.4391,0.4375,0.4355,0.4339,0.4309,0.4283,0.4262,0.4228,0.4203,0.419,0.4185,0.4159,0.4162,0.4163,0.4161,0.4146,0.4146,0.4146,0.4143,0.4143,0.4143,0,0,0.4508,0.4488,0.4473,0.4453,0.4422,0.44,0.4397,0.4361,0.4346,0.432,0.4297,0.4276,0.4233,0.421,0.4192,0.4187,0.417,0.4179,0.4187,0.4173,0.4173,0.4173,0.4171,0.417,0.4178,0.4178,0.4178,0,0.4521,0.4492,0.4467,0.4448,0.4432,0.4407,0.439,0.4371,0.4332,0.432,0.4315,0.426,0.4236,0.4205,0.4203,0.419,0.4184,0.4184,0.4176,0.4176,0.4175,0.4172,0.4171,0.4179,0.4179,0.4179,0.4179,0,0.4509,0.4489,0.448,0.4446,0.4429,0.4411,0.4382,0.4367,0.435,0.4329,0.4301,0.4271,0.4239,0.423,0.4213,0.4196,0.4193,0.4183,0.4173,0.4177,0.4174,0.4172,0.4181,0.4181,0.418,0.418,0,0,0.4528,0.4481,0.4478,0.4462,0.4425,0.4408,0.4389,0.4359,0.4346,0.432,0.4302,0.4266,0.4256,0.4236,0.4216,0.4204,0.42,0.4194,0.4193,0.4196,0.4178,0.4186,0.4185,0.4189,0.4189,0.4188,0.4181,0,0.4526,0.4493,0.447,0.4444,0.4425,0.44,0.4383,0.4357,0.4337,0.4315,0.4291,0.4266,0.4255,0.4243,0.423,0.4204,0.4196,0.4204,0.4169,0.4168,0.4179,0.4184,0.4192,0.4186,0.4179,0.4179,0.4179,0,0.452,0.4497,0.447,0.4436,0.4426,0.4412,0.4382,0.4363,0.4332,0.4318,0.4296,0.4276,0.4252,0.4246,0.4211,0.4217,0.4201,0.4186,0.4185,0.418,0.4174,0.4178,0.4184,0.4183,0.4176,0.4177,0.4177,0,0.4536,0.4498,0.4477,0.4463,0.4423,0.4413,0.4395,0.4365,0.4349,0.4322,0.4311,0.4281,0.4264,0.424,0.4212,0.421,0.4179,0.4171,0.4165,0.4166,0.4159,0.416,0.4162,0.4151,0.4151,0.4151,0.4151,0,0.4536,0.452,0.4483,0.447,0.4451,0.4424,0.4405,0.4385,0.4359,0.4339,0.4316,0.4298,0.4262,0.4238,0.4216,0.419,0.4182,0.4169,0.4163,0.4171,0.4172,0.4159,0.4159,0.415,0.415,0.415,0.415,0,0.455,0.4525,0.4501,0.4465,0.4455,0.4443,0.4411,0.4396,0.4375,0.4351,0.4343,0.4309,0.428,0.425,0.421,0.4195,0.417,0.4162,0.4181,0.4177,0.4173,0.4174,0.4167,0.4164,0.4155,0.4155,0.4155,0,0.4552,0.454,0.4503,0.449,0.4473,0.4452,0.4435,0.4407,0.4391,0.4355,0.4344,0.4315,0.429,0.4245,0.4214,0.4184,0.4174,0.4174,0.4169,0.4178,0.4173,0.4174,0.4172,0.4175,0.4175,0.4176,0.4176,0,0.4557,0.4545,0.4524,0.4498,0.4479,0.4457,0.4433,0.4423,0.4389,0.4371,0.4344,0.4324,0.4285,0.4255,0.4221,0.42,0.4181,0.4178,0.4174,0.4182,0.4194,0.4187,0.4184,0.4178,0.4177,0.4177,0.4177,0.4177,0.4564,0.4552,0.4525,0.4501,0.4481,0.4459,0.4444,0.4421,0.4398,0.4366,0.435,0.4321,0.429,0.4243,0.4222,0.4198,0.4192,0.4188,0.4187,0.4186,0.4188,0.4198,0.4191,0.4191,0.4191,0.4191,0.4191,0,0.4568,0.4549,0.4528,0.4496,0.4477,0.4465,0.4437,0.4422,0.4398,0.4372,0.4348,0.4315,0.4286,0.4254,0.4222,0.4209,0.4199,0.4201,0.4202,0.4197,0.4195,0.4201,0.4209,0.4209,0.4209,0.4209,0.4209,0.4209,0.4567,0.4546,0.4531,0.4498,0.4479,0.4453,0.4439,0.4418,0.4397,0.4362,0.4339,0.4319,0.4289,0.4255,0.4227,0.4218,0.4207,0.4211,0.42,0.4198,0.4197,0.4196,0.4201,0.4209,0.4209,0.4203,0.4203,0.4203]}]]